CZ-6A DEB, 54995

Orbit data source: Space-Track

CZ-6A DEB, 54995 is space debris in SSO originally from a launch on Fri, 11 Nov 2022 UTC launched from the Taiyaun Space Center, China (TSC). Debris objects in space refer to the collection of defunct objects orbiting the Earth. Examples of debris include non-operational satellites, rocket bodies, and fragments generated from explosions, collisions, or faulty payload assembly.

Loading next visibility...
Identifier
54995, 2022-151UL
Orbit
SSO
Country
Flag of CNCN / PRC
Related business
Manufacturer
SAST
Mission
Spacecraft
Bus & Motor
Unknown
Mass
Unknown
Launch date (UTC)
2022-11-11 (4 years ago)
Launch vehicle
Unknown
Launch site
Taiyaun Space Center, China (TSC)
Object type
Payload
Rocket body
Debris
Shape & HBR
Unknown shape, 0.1 m
Radar Cross Section
Medium (>0.1 m² and <1 m²)

Expand to show TLE details & history
Last TLE update: 2 days ago

TLE from 2 days ago
0 CZ-6A DEB
1 54995U 22151UL  26171.14624455  .00004149  00000-0  84175-3 0  9997
2 54995  98.6358 231.7895 0068155 294.0932  65.3148 14.60322951118462
Epoch: 2026-06-20T03:30Z
TLE epoch observation values (Epoch: 2026-06-20T03:30:35.529Z)
Latitude
0.00005°
Longitude
-89.2236°
Altitude
675.247 km
Speed
7.53 km/s
True Right ascension
15h 27m 09s
True Declination
0° 00' 00"
Sunlit
Object was in full shadow at epoch
Visualization orbit readout
Latitude
Unknown
Longitude
Unknown
Altitude
Unknown
Speed
Unknown
Apparent Right ascension
Unknown
Apparent Declination
Unknown
Sunlit
N/A
Visualization observer readout
Local Sidereal Time
21:29:17
Azimuth
Unknown
Elevation
Unknown
Doppler factor
Unknown
Orbital elements
Apogee altitude
737.4 km
Perigee altitude
641.065 km
Semi-major axis
7,067.37 km
Eccentricity
0.00682
Inclination
98.6358°
RAAN
231.7895°
Arg. of periapsis
294.0932°
True anomaly
66.02694°
Mean anomaly
65.3148°
Eccentric anomaly
65.67062°
Mean motion
3.65306 °/min
Orbital period
98.55 mins
BSTAR
0.00084175
Loading maneuver chart data...
Computing Atmospheric mass density...
Loading historical data...
Loading historical data...
Loading historical data...
Loading historical data...
Loading historical data...
Loading historical data...
Loading historical data...

Documentation

Showing up to 5 results
|